Location: Newark
(37.0833°N, 15.2833°E)
Time: 11:51:50
(UTC+00:00)

N. Korean satellite - Visible Passes

Search period start: 29 September 2020 00:00
Search period end: 09 October 2020 00:00
Orbit: 455 x 503 km, 97.2° (Epoch: 28 September)

Date Brightness Start Highest point End Pass type
(mag) Time Alt. Az. Time Alt. Az. Time Alt. Az.
29 Sep 9.8 03:39:18 10° NE 03:41:36 16° E 03:43:53 10° SE visible
01 Oct 7.2 04:19:28 10° NNE 04:23:01 59° E 04:26:29 10° S visible
02 Oct 9.1 03:53:53 10° NE 03:56:54 25° E 03:59:50 10° SSE visible
03 Oct 10.1 03:29:24 10° ENE 03:30:40 12° E 03:31:55 10° ESE visible
05 Oct 8.0 04:08:43 10° NNE 04:12:06 40° E 04:15:23 10° S visible
06 Oct 9.7 03:43:25 10° NE 03:45:55 18° E 03:48:22 10° SE visible
07 Oct 10.8 16:58:21 10° WSW 16:59:22 11° W 17:00:22 10° WNW visible
08 Oct 6.9 04:23:41 10° NNE 04:27:12 70° E 04:30:39 10° S visible
